Hourly Weather Otusz

Today, 30 July, Friday

Time Temperature Precipitation Wind Pressure Humidity
00:00 +19°C° 0 mm 2 mps 750 mmHg 61%
01:00 +18°C° 0 mm 2 mps 750 mmHg 62%
02:00 +17°C° 0 mm 2 mps 750 mmHg 67%
03:00 +16°C° 0 mm 2 mps 750 mmHg 72%
04:00 +15°C° 0 mm 2 mps 750 mmHg 77%
05:00 +16°C° 0 mm 3 mps 750 mmHg 70%
06:00 +18°C° 0 mm 3 mps 750 mmHg 62%
07:00 +20°C° 0 mm 4 mps 750 mmHg 55%
08:00 +21°C° 0 mm 5 mps 750 mmHg 50%
09:00 +23°C° 0 mm 5 mps 749 mmHg 46%
10:00 +24°C° 0 mm 6 mps 749 mmHg 41%
11:00 +26°C° 0 mm 6 mps 749 mmHg 39%
12:00 +27°C° 0 mm 6 mps 749 mmHg 38%
13:00 +28°C° 0 mm 7 mps 748 mmHg 37%
14:00 +28°C° 0 mm 6 mps 748 mmHg 36%
15:00 +28°C° 0 mm 6 mps 748 mmHg 36%
16:00 +28°C° 0 mm 6 mps 747 mmHg 35%
17:00 +27°C° 0 mm 5 mps 748 mmHg 40%
18:00 +25°C° 0 mm 4 mps 748 mmHg 45%
19:00 +24°C° 0 mm 3 mps 748 mmHg 50%
20:00 +23°C° 0 mm 2 mps 748 mmHg 54%
21:00 +20°C° 0 mm 2 mps 748 mmHg 58%
22:00 +20°C° 0 mm 1 mps 748 mmHg 62%
23:00 +20°C° 0 mm 1 mps 748 mmHg 63%

Tomorrow, 31 July, Saturday

Time Temperature Precipitation Wind Pressure Humidity
00:00 +18°C° 0 mm 2 mps 748 mmHg 65%
01:00 +18°C° 0 mm 2 mps 748 mmHg 67%
02:00 +18°C° 0 mm 2 mps 747 mmHg 67%
03:00 +18°C° 0 mm 2 mps 747 mmHg 67%
04:00 +18°C° 0 mm 3 mps 747 mmHg 67%
05:00 +19°C° 0 mm 3 mps 747 mmHg 64%
06:00 +21°C° 0 mm 4 mps 747 mmHg 62%
07:00 +22°C° 0 mm 4 mps 747 mmHg 59%
08:00 +23°C° 0 mm 5 mps 747 mmHg 56%
09:00 +25°C° 0 mm 5 mps 747 mmHg 52%
10:00 +26°C° 0 mm 6 mps 747 mmHg 49%
11:00 +27°C° 0 mm 6 mps 747 mmHg 43%
12:00 +28°C° 0 mm 7 mps 747 mmHg 37%
13:00 +29°C° 0 mm 7 mps 747 mmHg 31%
14:00 +29°C° 0 mm 7 mps 747 mmHg 31%
15:00 +29°C° 0 mm 7 mps 746 mmHg 30%
16:00 +28°C° 0 mm 7 mps 746 mmHg 30%
17:00 +27°C° 0 mm 7 mps 746 mmHg 34%
18:00 +26°C° 0 mm 6 mps 746 mmHg 38%
19:00 +25°C° 0 mm 5 mps 747 mmHg 42%
20:00 +22°C° 0 mm 4 mps 747 mmHg 47%
21:00 +20°C° 0 mm 4 mps 747 mmHg 52%
22:00 +19°C° 0 mm 3 mps 748 mmHg 58%
23:00 +18°C° 0 mm 3 mps 748 mmHg 61%

Day after tomorrow, 1 August, Sunday

Time Temperature Precipitation Wind Pressure Humidity
00:00 +17°C° 0 mm 3 mps 748 mmHg 65%
01:00 +17°C° 0 mm 3 mps 748 mmHg 69%
02:00 +16°C° 0 mm 3 mps 748 mmHg 72%
03:00 +16°C° 0 mm 3 mps 748 mmHg 75%
04:00 +14°C° 0 mm 3 mps 748 mmHg 78%
05:00 +16°C° 0 mm 3 mps 748 mmHg 75%
06:00 +17°C° 0 mm 3 mps 748 mmHg 72%
07:00 +18°C° 0 mm 3 mps 748 mmHg 69%
08:00 +19°C° 0 mm 3 mps 748 mmHg 64%
09:00 +20°C° 0 mm 3 mps 748 mmHg 60%
10:00 +21°C° 0 mm 3 mps 748 mmHg 56%
11:00 +22°C° 0 mm 3 mps 748 mmHg 53%
12:00 +22°C° 0 mm 3 mps 748 mmHg 50%
13:00 +24°C° 0 mm 3 mps 748 mmHg 48%
14:00 +24°C° 0 mm 3 mps 748 mmHg 49%
15:00 +22°C° 0 mm 3 mps 748 mmHg 50%
16:00 +22°C° 0 mm 3 mps 748 mmHg 52%
17:00 +21°C° 0 mm 3 mps 748 mmHg 54%
18:00 +21°C° 0 mm 2 mps 748 mmHg 57%
19:00 +20°C° 0 mm 2 mps 748 mmHg 60%
20:00 +19°C° 0 mm 2 mps 748 mmHg 63%
21:00 +19°C° 0 mm 2 mps 748 mmHg 67%
22:00 +18°C° 0 mm 2 mps 748 mmHg 71%
23:00 +17°C° 0 mm 2 mps 748 mmHg 73%

2 August, Monday

Time Temperature Precipitation Wind Pressure Humidity
00:00 +16°C° 0 mm 2 mps 748 mmHg 76%
01:00 +16°C° 0 mm 2 mps 748 mmHg 79%
02:00 +15°C° 0 mm 2 mps 748 mmHg 82%
03:00 +15°C° 0 mm 2 mps 748 mmHg 84%
04:00 +14°C° 0 mm 2 mps 748 mmHg 87%
05:00 +16°C° 0 mm 3 mps 748 mmHg 81%
06:00 +17°C° 0 mm 3 mps 748 mmHg 75%
07:00 +19°C° 0 mm 4 mps 749 mmHg 70%
08:00 +19°C° 0.3 mm 4 mps 749 mmHg 69%
09:00 +20°C° 0.3 mm 5 mps 749 mmHg 68%
10:00 +20°C° 0.3 mm 6 mps 749 mmHg 67%
11:00 +21°C° 0.1 mm 6 mps 749 mmHg 61%
12:00 +22°C° 0.1 mm 6 mps 750 mmHg 56%
13:00 +22°C° 0.1 mm 6 mps 750 mmHg 50%
14:00 +22°C° 0 mm 6 mps 750 mmHg 48%
15:00 +22°C° 0 mm 6 mps 750 mmHg 47%
16:00 +22°C° 0 mm 6 mps 750 mmHg 46%
17:00 +21°C° 0 mm 5 mps 751 mmHg 47%
18:00 +20°C° 0 mm 4 mps 751 mmHg 48%
19:00 +19°C° 0 mm 4 mps 751 mmHg 49%
20:00 +18°C° 0 mm 3 mps 751 mmHg 52%
21:00 +17°C° 0 mm 3 mps 752 mmHg 56%
22:00 +16°C° 0 mm 3 mps 752 mmHg 59%
23:00 +16°C° 0 mm 3 mps 752 mmHg 60%

3 August, Tuesday

Time Temperature Precipitation Wind Pressure Humidity
00:00 +16°C° 0 mm 3 mps 752 mmHg 60%
01:00 +16°C° 0 mm 2 mps 752 mmHg 60%
02:00 +15°C° 0 mm 2 mps 752 mmHg 66%
03:00 +15°C° 0 mm 2 mps 752 mmHg 71%
04:00 +14°C° 0 mm 2 mps 752 mmHg 77%
05:00 +15°C° 0 mm 2 mps 752 mmHg 72%
06:00 +16°C° 0 mm 2 mps 753 mmHg 67%
07:00 +17°C° 0 mm 2 mps 753 mmHg 63%
08:00 +18°C° 0 mm 2 mps 753 mmHg 58%
09:00 +20°C° 0 mm 2 mps 753 mmHg 54%
10:00 +21°C° 0 mm 2 mps 753 mmHg 50%
11:00 +23°C° 0 mm 2 mps 753 mmHg 48%
12:00 +24°C° 0 mm 3 mps 752 mmHg 45%
13:00 +25°C° 0 mm 3 mps 752 mmHg 43%
14:00 +25°C° 0.1 mm 3 mps 752 mmHg 45%
15:00 +25°C° 0.1 mm 2 mps 751 mmHg 48%
16:00 +24°C° 0.1 mm 2 mps 751 mmHg 51%
17:00 +23°C° 1 mm 2 mps 751 mmHg 61%
18:00 +20°C° 1 mm 2 mps 751 mmHg 71%
19:00 +18°C° 1 mm 2 mps 751 mmHg 82%
20:00 +18°C° 0.5 mm 2 mps 751 mmHg 84%
21:00 +17°C° 0.5 mm 2 mps 752 mmHg 86%
22:00 +16°C° 0.5 mm 2 mps 752 mmHg 88%
23:00 +16°C° 0.1 mm 2 mps 752 mmHg 90%

4 August, Wednesday

Time Temperature Precipitation Wind Pressure Humidity
00:00 +16°C° 0.1 mm 2 mps 752 mmHg 91%
01:00 +16°C° 0.1 mm 2 mps 752 mmHg 93%
02:00 +16°C° 0 mm 2 mps 752 mmHg 93%
03:00 +15°C° 0 mm 2 mps 752 mmHg 94%
04:00 +15°C° 0 mm 2 mps 751 mmHg 94%
05:00 +16°C° 0 mm 2 mps 752 mmHg 92%
06:00 +16°C° 0 mm 2 mps 752 mmHg 91%
07:00 +16°C° 0 mm 2 mps 752 mmHg 89%
08:00 +18°C° 0 mm 1 mps 752 mmHg 85%
09:00 +19°C° 0 mm 1 mps 752 mmHg 81%
10:00 +20°C° 0 mm 1 mps 752 mmHg 77%
11:00 +21°C° 0.3 mm 1 mps 752 mmHg 72%
12:00 +21°C° 0.3 mm 2 mps 752 mmHg 68%
13:00 +23°C° 0.3 mm 2 mps 752 mmHg 64%
14:00 +23°C° 0.7 mm 2 mps 751 mmHg 62%
15:00 +23°C° 0.7 mm 2 mps 751 mmHg 60%
16:00 +24°C° 0.7 mm 2 mps 751 mmHg 58%
17:00 +21°C° 0.6 mm 2 mps 751 mmHg 63%
18:00 +20°C° 0.6 mm 2 mps 751 mmHg 68%
19:00 +19°C° 0.6 mm 2 mps 751 mmHg 73%
20:00 +18°C° 0.5 mm 2 mps 751 mmHg 78%
21:00 +17°C° 0.5 mm 2 mps 751 mmHg 83%
22:00 +17°C° 0.5 mm 3 mps 752 mmHg 88%
23:00 +16°C° 0.1 mm 3 mps 752 mmHg 90%
Show more